Time,TemperatureF,DewpointF,PressureIn,WindDirection,WindDirectionDegrees,WindSpeedMPH,WindSpeedGustMPH,Humidity,HourlyPrecipIn,Conditions,Clouds,dailyrainin,SolarRadiationWatts/m^2,SoftwareType,DateUTC
2013-02-27 00:01:00,61.0,60.0,-100.00,NNE,24,0.0,0.0,97,0.08,,,0.88,0.000000,,2013-02-27 00:01:00,
2013-02-27 00:11:00,61.0,60.0,-100.00,NNE,24,0.0,0.0,97,0.08,,,0.88,0.000000,,2013-02-27 00:11:00,
2013-02-27 00:21:00,61.0,60.0,-100.00,NNE,24,0.0,0.0,97,0.08,,,0.88,0.000000,,2013-02-27 00:21:00,
2013-02-27 00:31:00,61.0,60.0,-100.00,NNE,24,0.0,0.0,97,0.08,,,0.88,0.000000,,2013-02-27 00:31:00,
2013-02-27 01:01:00,61.0,60.0,-100.00,NNE,21,0.0,0.0,98,0.00,,,0.88,0.000000,,2013-02-27 01:01:00,
2013-02-27 01:11:00,61.0,60.0,-100.00,NNE,21,0.0,0.0,98,0.00,,,0.88,0.000000,,2013-02-27 01:11:00,
2013-02-27 01:21:00,61.0,60.0,-100.00,NNE,21,0.0,0.0,98,0.00,,,0.88,0.000000,,2013-02-27 01:21:00,
2013-02-27 01:31:00,61.0,60.0,-100.00,NNE,21,0.0,0.0,98,0.00,,,0.88,0.000000,,2013-02-27 01:31:00,
2013-02-27 02:01:00,61.0,60.0,-100.00,NNE,26,0.0,0.0,98,0.00,,,0.88,0.000000,,2013-02-27 02:01:00,
2013-02-27 02:13:00,61.0,60.0,-100.00,NNE,26,0.0,0.0,98,0.00,,,0.88,0.000000,,2013-02-27 02:13:00,
2013-02-27 02:22:00,61.0,60.0,-100.00,NNE,26,0.0,0.0,98,0.00,,,0.88,0.000000,,2013-02-27 02:22:00,
2013-02-27 02:31:00,61.0,60.0,-100.00,NNE,26,0.0,0.0,98,0.00,,,0.88,0.000000,,2013-02-27 02:31:00,
2013-02-27 03:01:00,61.0,59.0,-100.00,NNE,25,0.0,0.0,93,0.00,,,0.88,0.000000,,2013-02-27 03:01:00,
2013-02-27 03:11:00,61.0,59.0,-100.00,NNE,25,0.0,0.0,93,0.00,,,0.88,0.000000,,2013-02-27 03:11:00,
2013-02-27 03:21:00,61.0,59.0,-100.00,NNE,25,0.0,0.0,93,0.00,,,0.88,0.000000,,2013-02-27 03:21:00,
2013-02-27 03:31:00,61.0,59.0,-100.00,NNE,25,0.0,0.0,93,0.00,,,0.88,0.000000,,2013-02-27 03:31:00,
2013-02-27 03:52:00,60.0,59.0,-100.00,NNE,18,0.0,0.0,98,0.01,,,0.88,0.000000,,2013-02-27 03:52:00,
2013-02-27 04:01:00,60.0,59.0,-100.00,NNE,18,0.0,0.0,98,0.01,,,0.88,0.000000,,2013-02-27 04:01:00,
2013-02-27 04:11:00,60.0,59.0,-100.00,NNE,18,0.0,0.0,98,0.01,,,0.88,0.000000,,2013-02-27 04:11:00,
2013-02-27 04:21:00,60.0,59.0,-100.00,NNE,18,0.0,0.0,98,0.01,,,0.88,0.000000,,2013-02-27 04:21:00,
2013-02-27 04:31:00,60.0,59.0,-100.00,NNE,18,0.0,0.0,98,0.01,,,0.88,0.000000,,2013-02-27 04:31:00,
2013-02-27 05:01:00,60.0,60.0,-100.00,NE,37,0.0,0.0,99,0.00,,,0.75,0.000000,,2013-02-27 05:01:00,
2013-02-27 05:11:00,60.0,60.0,-100.00,NE,37,0.0,0.0,99,0.00,,,0.75,0.000000,,2013-02-27 05:11:00,
2013-02-27 05:22:00,60.0,60.0,-100.00,NE,37,0.0,0.0,99,0.00,,,0.75,0.000000,,2013-02-27 05:22:00,
2013-02-27 05:32:00,60.0,60.0,-100.00,NE,37,0.0,0.0,99,0.00,,,0.75,0.000000,,2013-02-27 05:32:00,
2013-02-27 06:02:00,60.0,60.0,-100.00,NNE,27,0.0,0.0,99,0.00,,,0.41,0.000000,,2013-02-27 06:02:00,
2013-02-27 06:11:00,60.0,60.0,-100.00,NNE,27,0.0,0.0,99,0.00,,,0.41,0.000000,,2013-02-27 06:11:00,
2013-02-27 06:21:00,60.0,60.0,-100.00,NNE,27,0.0,0.0,99,0.00,,,0.41,0.000000,,2013-02-27 06:21:00,
2013-02-27 06:32:00,60.0,60.0,-100.00,NNE,27,0.0,0.0,99,0.00,,,0.41,0.000000,,2013-02-27 06:32:00,
2013-02-27 07:01:00,60.0,60.0,-100.00,NNE,29,0.0,0.0,99,0.00,,,0.17,0.000000,,2013-02-27 07:01:00,
2013-02-27 07:12:00,60.0,60.0,-100.00,NNE,29,0.0,0.0,99,0.00,,,0.17,0.000000,,2013-02-27 07:12:00,
2013-02-27 07:21:00,60.0,60.0,-100.00,NNE,29,0.0,0.0,99,0.00,,,0.17,0.000000,,2013-02-27 07:21:00,
2013-02-27 07:31:00,60.0,60.0,-100.00,NNE,29,0.0,0.0,99,0.00,,,0.17,0.000000,,2013-02-27 07:31:00,
2013-02-27 07:52:00,60.0,60.0,-100.00,NNE,16,0.0,0.0,99,0.00,,,0.17,0.000000,,2013-02-27 07:52:00,
2013-02-27 08:01:00,60.0,60.0,-100.00,NNE,16,0.0,0.0,99,0.00,,,0.17,0.000000,,2013-02-27 08:01:00,
2013-02-27 08:11:00,60.0,60.0,-100.00,NNE,16,0.0,0.0,99,0.00,,,0.17,0.000000,,2013-02-27 08:11:00,
2013-02-27 08:21:00,60.0,60.0,-100.00,NNE,16,0.0,0.0,99,0.00,,,0.17,0.000000,,2013-02-27 08:21:00,
2013-02-27 08:31:00,60.0,60.0,-100.00,NNE,16,0.0,0.0,99,0.00,,,0.17,0.000000,,2013-02-27 08:31:00,
2013-02-27 09:01:00,60.0,60.0,-100.00,NNE,25,0.0,0.0,99,0.02,,,0.19,0.000000,,2013-02-27 09:01:00,
2013-02-27 09:11:00,60.0,60.0,-100.00,NNE,25,0.0,0.0,99,0.02,,,0.19,0.000000,,2013-02-27 09:11:00,
2013-02-27 09:21:00,60.0,60.0,-100.00,NNE,25,0.0,0.0,99,0.02,,,0.19,0.000000,,2013-02-27 09:21:00,
2013-02-27 09:31:00,60.0,60.0,-100.00,NNE,25,0.0,0.0,99,0.02,,,0.19,0.000000,,2013-02-27 09:31:00,
2013-02-27 09:52:00,60.0,60.0,-100.00,NNE,16,0.0,0.0,99,0.02,,,0.21,0.000000,,2013-02-27 09:52:00,
2013-02-27 10:01:00,60.0,60.0,-100.00,NNE,16,0.0,0.0,99,0.02,,,0.21,0.000000,,2013-02-27 10:01:00,
2013-02-27 10:12:00,60.0,60.0,-100.00,NNE,16,0.0,0.0,99,0.02,,,0.21,0.000000,,2013-02-27 10:12:00,
2013-02-27 10:21:00,60.0,60.0,-100.00,NNE,16,0.0,0.0,99,0.02,,,0.21,0.000000,,2013-02-27 10:21:00,
2013-02-27 10:31:00,60.0,60.0,-100.00,NNE,16,0.0,0.0,99,0.02,,,0.21,0.000000,,2013-02-27 10:31:00,
2013-02-27 11:01:00,60.0,60.0,-100.00,NNE,25,0.0,0.0,99,0.00,,,0.21,0.000000,,2013-02-27 11:01:00,
2013-02-27 11:12:00,60.0,60.0,-100.00,NNE,25,0.0,0.0,99,0.00,,,0.21,0.000000,,2013-02-27 11:12:00,
2013-02-27 11:22:00,60.0,60.0,-100.00,NNE,25,0.0,0.0,99,0.00,,,0.21,0.000000,,2013-02-27 11:22:00,
2013-02-27 11:31:00,60.0,60.0,-100.00,NNE,25,0.0,0.0,99,0.00,,,0.21,0.000000,,2013-02-27 11:31:00,
2013-02-27 11:52:00,60.0,59.0,-100.00,NNE,22,0.0,0.0,95,0.00,,,0.21,0.000000,,2013-02-27 11:52:00,
2013-02-27 12:02:00,60.0,59.0,-100.00,NNE,22,0.0,0.0,95,0.00,,,0.21,0.000000,,2013-02-27 12:02:00,
2013-02-27 12:12:00,60.0,59.0,-100.00,NNE,22,0.0,0.0,95,0.00,,,0.21,0.000000,,2013-02-27 12:12:00,
2013-02-27 12:22:00,60.0,59.0,-100.00,NNE,22,0.0,0.0,95,0.00,,,0.21,0.000000,,2013-02-27 12:22:00,
2013-02-27 12:32:00,60.0,59.0,-100.00,NNE,22,0.0,0.0,95,0.00,,,0.21,0.000000,,2013-02-27 12:32:00,
2013-02-27 13:02:00,59.0,57.0,-100.00,NE,34,0.0,0.0,92,0.00,,,0.20,0.000000,,2013-02-27 13:02:00,
2013-02-27 13:11:00,59.0,57.0,-100.00,NE,34,0.0,0.0,92,0.00,,,0.20,0.000000,,2013-02-27 13:11:00,
2013-02-27 13:21:00,59.0,57.0,-100.00,NE,34,0.0,0.0,92,0.00,,,0.20,0.000000,,2013-02-27 13:21:00,
2013-02-27 13:31:00,59.0,57.0,-100.00,NE,34,0.0,0.0,92,0.00,,,0.20,0.000000,,2013-02-27 13:31:00,
2013-02-27 14:02:00,60.0,56.0,-100.00,NE,37,0.0,0.0,88,0.00,,,0.20,0.000000,,2013-02-27 14:02:00,
2013-02-27 14:11:00,60.0,56.0,-100.00,NE,37,0.0,0.0,88,0.00,,,0.20,0.000000,,2013-02-27 14:11:00,
2013-02-27 14:21:00,60.0,56.0,-100.00,NE,37,0.0,0.0,88,0.00,,,0.20,0.000000,,2013-02-27 14:21:00,
2013-02-27 14:31:00,60.0,56.0,-100.00,NE,37,0.0,0.0,88,0.00,,,0.20,0.000000,,2013-02-27 14:31:00,
2013-02-27 15:02:00,59.0,58.0,-100.00,NNE,26,0.0,0.0,96,0.00,,,0.20,0.000000,,2013-02-27 15:02:00,
2013-02-27 15:12:00,59.0,58.0,-100.00,NNE,26,0.0,0.0,96,0.00,,,0.20,0.000000,,2013-02-27 15:12:00,
2013-02-27 15:22:00,59.0,58.0,-100.00,NNE,26,0.0,0.0,96,0.00,,,0.20,0.000000,,2013-02-27 15:22:00,
2013-02-27 15:32:00,59.0,58.0,-100.00,NNE,26,0.0,0.0,96,0.00,,,0.20,0.000000,,2013-02-27 15:32:00,
2013-02-27 16:01:00,60.0,57.0,-100.00,NNE,25,0.0,0.0,91,0.00,,,0.13,0.000000,,2013-02-27 16:01:00,
2013-02-27 16:11:00,60.0,57.0,-100.00,NNE,25,0.0,0.0,91,0.00,,,0.13,0.000000,,2013-02-27 16:11:00,
2013-02-27 16:21:00,60.0,57.0,-100.00,NNE,25,0.0,0.0,91,0.00,,,0.13,0.000000,,2013-02-27 16:21:00,
2013-02-27 16:32:00,60.0,57.0,-100.00,NNE,25,0.0,0.0,91,0.00,,,0.13,0.000000,,2013-02-27 16:32:00,
2013-02-27 17:01:00,60.0,56.0,-100.00,NNE,29,0.0,0.0,86,0.00,,,0.13,0.000000,,2013-02-27 17:01:00,
2013-02-27 17:11:00,60.0,56.0,-100.00,NNE,29,0.0,0.0,86,0.00,,,0.13,0.000000,,2013-02-27 17:11:00,
2013-02-27 17:21:00,60.0,56.0,-100.00,NNE,29,0.0,0.0,86,0.00,,,0.13,0.000000,,2013-02-27 17:21:00,
2013-02-27 17:32:00,60.0,56.0,-100.00,NNE,29,0.0,0.0,86,0.00,,,0.13,0.000000,,2013-02-27 17:32:00,
2013-02-27 18:01:00,60.0,54.0,-100.00,NNE,28,0.0,0.0,81,0.00,,,0.13,0.000000,,2013-02-27 18:01:00,
2013-02-27 18:11:00,60.0,54.0,-100.00,NNE,28,0.0,0.0,81,0.00,,,0.13,0.000000,,2013-02-27 18:11:00,
2013-02-27 18:22:00,60.0,54.0,-100.00,NNE,28,0.0,0.0,81,0.00,,,0.13,0.000000,,2013-02-27 18:22:00,
2013-02-27 18:31:00,60.0,54.0,-100.00,NNE,28,0.0,0.0,81,0.00,,,0.13,0.000000,,2013-02-27 18:31:00,
2013-02-27 19:01:00,60.0,56.0,-100.00,NNE,24,0.0,0.0,86,0.00,,,0.13,0.000000,,2013-02-27 19:01:00,
2013-02-27 19:11:00,60.0,56.0,-100.00,NNE,24,0.0,0.0,86,0.00,,,0.13,0.000000,,2013-02-27 19:11:00,
2013-02-27 19:21:00,60.0,56.0,-100.00,NNE,24,0.0,0.0,86,0.00,,,0.13,0.000000,,2013-02-27 19:21:00,
2013-02-27 19:32:00,60.0,56.0,-100.00,NNE,24,0.0,0.0,86,0.00,,,0.13,0.000000,,2013-02-27 19:32:00,
2013-02-27 20:01:00,62.0,54.0,-100.00,NNE,31,0.0,0.0,75,0.00,,,0.13,0.000000,,2013-02-27 20:01:00,
2013-02-27 20:11:00,62.0,54.0,-100.00,NNE,31,0.0,0.0,75,0.00,,,0.13,0.000000,,2013-02-27 20:11:00,
2013-02-27 20:21:00,62.0,54.0,-100.00,NNE,31,0.0,0.0,75,0.00,,,0.13,0.000000,,2013-02-27 20:21:00,
2013-02-27 20:31:00,62.0,54.0,-100.00,NNE,31,0.0,0.0,75,0.00,,,0.13,0.000000,,2013-02-27 20:31:00,
2013-02-27 21:01:00,61.0,53.0,-100.00,NNE,17,0.0,0.0,75,0.00,,,-99.99,0.000000,,2013-02-27 21:01:00,
2013-02-27 21:11:00,61.0,53.0,-100.00,NNE,17,0.0,0.0,75,0.00,,,-99.99,0.000000,,2013-02-27 21:11:00,
2013-02-27 21:21:00,61.0,53.0,-100.00,NNE,17,0.0,0.0,75,0.00,,,-99.99,0.000000,,2013-02-27 21:21:00,
2013-02-27 21:31:00,61.0,53.0,-100.00,NNE,17,0.0,0.0,75,0.00,,,-99.99,0.000000,,2013-02-27 21:31:00,
2013-02-27 22:01:00,63.0,58.0,-100.00,NNE,19,0.0,0.0,85,0.00,,,0.13,0.000000,,2013-02-27 22:01:00,
2013-02-27 22:11:00,63.0,58.0,-100.00,NNE,19,0.0,0.0,85,0.00,,,0.13,0.000000,,2013-02-27 22:11:00,
2013-02-27 22:21:00,63.0,58.0,-100.00,NNE,19,0.0,0.0,85,0.00,,,0.13,0.000000,,2013-02-27 22:21:00,
2013-02-27 22:31:00,63.0,58.0,-100.00,NNE,19,0.0,0.0,85,0.00,,,0.13,0.000000,,2013-02-27 22:31:00,
2013-02-27 23:01:00,63.0,55.0,-100.00,NNE,22,0.0,0.0,74,0.00,,,-99.99,0.000000,,2013-02-27 23:01:00,
2013-02-27 23:11:00,63.0,55.0,-100.00,NNE,22,0.0,0.0,74,0.00,,,-99.99,0.000000,,2013-02-27 23:11:00,
2013-02-27 23:21:00,63.0,55.0,-100.00,NNE,22,0.0,0.0,74,0.00,,,-99.99,0.000000,,2013-02-27 23:21:00,
2013-02-27 23:31:00,63.0,55.0,-100.00,NNE,22,0.0,0.0,74,0.00,,,-99.99,0.000000,,2013-02-27 23:31:00,